Retour au catalogue

SL-14 R/B

ActifPO
NORAD 18749·ROCKET BODY·🇷🇺 Russia

Lancé Jan 6, 1988 depuis Plesetsk Cosmodrome

Loading…

Prochains Passages (prochaines 24 heures)

TLE

FraisSource: Space-Track

Époque: Sep 14, 2026, 14:27 UTC

1 18749U 88001B   26257.60245846  .00000318  00000-0  33886-4 0  9997
2 18749  82.5157  17.6310 0017374 338.1807  21.8667 14.85659666 70079

Suivez SL-14 R/B en temps réel avec AllMySat

Download on the App Store